N2ADK Weather Reports


Display with metric or nautical units.
time (UTC)temp
F
wind
direction
speed
MPH
gust
MPH
rain 1hr
in
rain 24hr
in
rain mn
in
humidity
%
barometer
mb
20260507151532 50 0 0.0 0.0 0.00 0.12 0.01 65 1012.0
20260507151017 50 0 0.0 0.0 0.00 0.12 0.01 65 1012.0
20260507150517 50 0 0.0 0.0 0.00 0.12 0.01 63 1012.0
20260507150035 50 0 0.0 0.0 0.00 0.12 0.01 59 1012.2
20260507145517 50 0 0.0 0.0 0.00 0.15 0.01 61 1012.2
20260507145018 50 0 0.0 0.0 0.00 0.15 0.01 59 1012.1
20260507144534 50 0 0.0 0.0 0.00 0.15 0.01 63 1012.0
20260507144017 50 0 0.0 0.0 0.00 0.15 0.01 62 1012.2
20260507143521 50 0 0.0 0.0 0.00 0.15 0.01 64 1012.2
20260507143032 49 0 0.0 0.0 0.00 0.15 0.01 63 1012.1
20260507142518 49 0 0.0 0.0 0.00 0.15 0.01 64 1012.3
20260507142014 49 0 0.0 0.0 0.00 0.15 0.01 63 1012.2
20260507141536 49 0 0.0 0.0 0.00 0.15 0.01 63 1012.3
20260507141017 49 0 0.0 0.0 0.00 0.15 0.01 68 1012.3
20260507140517 49 0 0.0 0.0 0.00 0.15 0.01 67 1012.2
20260507140043 49 0 0.0 0.0 0.00 0.15 0.01 65 1012.3
20260507135518 49 0 0.0 0.0 0.00 0.26 0.01 68 1012.3
20260507135014 49 0 0.0 0.0 0.00 0.26 0.01 62 1012.4
20260507134532 49 0 0.0 0.0 0.00 0.26 0.01 68 1012.4
20260507134016 48 0 0.0 0.0 0.00 0.26 0.01 64 1012.5
20260507133518 48 0 0.0 0.0 0.00 0.26 0.01 66 1012.6
20260507133030 47 0 0.0 0.0 0.00 0.26 0.01 64 1012.7
20260507132517 47 0 0.0 0.0 0.00 0.26 0.01 64 1012.4
20260507132018 47 0 0.0 0.0 0.00 0.26 0.01 63 1012.6
20260507131532 47 0 0.0 0.0 0.00 0.26 0.01 64 1012.6
20260507131018 47 0 0.0 0.0 0.00 0.26 0.01 64 1012.6
20260507130522 47 0 0.0 0.0 0.00 0.26 0.01 64 1012.6
20260507130049 47 0 0.0 0.0 0.00 0.26 0.01 63 1012.5
20260507125519 47 0 0.0 0.0 0.00 0.34 0.01 65 1012.4
20260507125015 47 0 0.0 0.0 0.00 0.34 0.01 68 1012.4
20260507124541 46 0 0.0 0.0 0.00 0.34 0.01 70 1012.3
20260507124017 46 0 0.0 0.0 0.00 0.34 0.01 70 1012.2
20260507123518 46 0 0.0 0.0 0.00 0.34 0.01 70 1012.4
20260507123038 46 0 0.0 0.0 0.00 0.34 0.01 68 1012.5
20260507122517 45 0 0.0 0.0 0.00 0.34 0.01 73 1012.5
20260507122017 45 0 0.0 0.0 0.00 0.34 0.01 75 1012.4
20260507121539 44 0 0.0 0.0 0.00 0.34 0.01 78 1012.4
20260507121021 43 0 0.0 0.0 0.00 0.34 0.01 77 1012.5
20260507120517 42 0 0.0 0.0 0.00 0.34 0.01 82 1012.4
20260507120029 41 0 0.0 0.0 0.00 0.34 0.01 85 1012.4
20260507115517 40 0 0.0 0.0 0.00 0.38 0.01 86 1012.4
20260507115017 40 0 0.0 0.0 0.00 0.38 0.01 90 1012.5
20260507114538 39 0 0.0 0.0 0.00 0.38 0.01 91 1012.4
20260507114018 38 0 0.0 0.0 0.00 0.38 0.01 93 1012.4
20260507113517 38 0 0.0 0.0 0.00 0.38 0.01 94 1012.4
20260507113038 37 0 0.0 0.0 0.00 0.38 0.01 95 1012.3
20260507112517 37 0 0.0 0.0 0.00 0.38 0.01 95 1012.4
20260507112018 36 0 0.0 0.0 0.00 0.38 0.01 96 1012.5
20260507111544 36 0 0.0 0.0 0.00 0.38 0.01 96 1012.5
20260507111017 35 0 0.0 0.0 0.00 0.38 0.01 95 1012.4
20260507110518 35 0 0.0 0.0 0.00 0.38 0.01 95 1012.5
20260507110031 34 0 0.0 0.0 0.00 0.38 0.01 95 1012.4
20260507105517 34 0 0.0 0.0 0.00 0.42 0.01 95 1012.4
20260507105017 34 0 0.0 0.0 0.00 0.42 0.01 95 1012.4
20260507104531 34 0 0.0 0.0 0.00 0.42 0.01 95 1012.4
20260507104020 33 0 0.0 0.0 0.00 0.42 0.01 95 1012.2
20260507103521 33 0 0.0 0.0 0.00 0.42 0.01 94 1012.1
20260507103035 33 0 0.0 0.0 0.00 0.42 0.01 94 1012.1
20260507102518 33 0 0.0 0.0 0.00 0.42 0.01 93 1012.0
20260507102017 33 0 0.0 0.0 0.00 0.42 0.01 94 1012.0
20260507101543 33 0 0.0 0.0 0.00 0.42 0.01 93 1011.9
20260507101018 33 0 0.0 0.0 0.00 0.42 0.01 93 1012.0
20260507100516 33 0 0.0 0.0 0.00 0.42 0.01 93 1011.8
20260507100035 33 0 0.0 0.0 0.00 0.42 0.01 93 1011.7
20260507095518 34 0 0.0 0.0 0.00 0.45 0.01 92 1011.7
20260507095019 34 0 0.0 0.0 0.00 0.45 0.01 93 1011.6
20260507094531 34 0 0.0 0.0 0.00 0.45 0.01 92 1011.7
20260507094017 34 0 0.0 0.0 0.00 0.45 0.01 92 1011.8
20260507093517 35 0 0.0 0.0 0.00 0.45 0.01 91 1011.9
20260507093039 35 0 0.0 0.0 0.00 0.45 0.01 91 1012.0
20260507092517 35 0 0.0 0.0 0.00 0.45 0.01 92 1012.0
20260507092017 36 0 0.0 0.0 0.00 0.45 0.01 91 1012.0
20260507091534 36 0 0.0 0.0 0.00 0.45 0.01 91 1012.1
20260507091017 36 0 0.0 0.0 0.00 0.45 0.01 91 1012.0
20260507090517 36 0 0.0 0.0 0.00 0.45 0.01 92 1012.0
20260507090034 36 0 0.0 0.0 0.00 0.45 0.01 92 1011.9
20260507085515 36 0 0.0 0.0 0.00 0.46 0.01 91 1012.0
20260507085018 37 0 0.0 0.0 0.00 0.46 0.01 91 1012.0
20260507084533 37 0 0.0 0.0 0.00 0.46 0.01 91 1011.9
20260507084022 37 0 0.0 0.0 0.00 0.46 0.01 90 1011.9
20260507083517 37 0 0.0 0.0 0.00 0.46 0.01 89 1011.9
20260507083037 37 0 0.0 0.0 0.00 0.46 0.01 89 1011.9
20260507082514 37 0 0.0 0.0 0.00 0.46 0.01 89 1011.8
20260507082017 38 0 0.0 0.0 0.00 0.46 0.01 89 1011.8
20260507081530 38 0 0.0 0.0 0.00 0.46 0.01 89 1011.7
20260507081017 39 0 0.0 0.0 0.00 0.46 0.01 90 1011.7
20260507080517 39 0 0.0 0.0 0.00 0.46 0.01 90 1011.9
20260507080035 39 0 0.0 0.0 0.00 0.46 0.01 90 1011.7
20260507075517 39 0 0.0 0.0 0.00 0.46 0.01 90 1011.6
20260507075017 40 0 0.0 0.0 0.00 0.46 0.01 90 1011.5
20260507074537 40 0 0.0 0.0 0.00 0.46 0.01 91 1011.7
20260507074016 40 0 0.0 0.0 0.00 0.46 0.01 90 1011.5
20260507073519 40 0 0.0 0.0 0.00 0.46 0.01 90 1011.6
20260507073033 40 0 0.0 0.0 0.00 0.46 0.01 90 1011.7
20260507072517 41 0 0.0 0.0 0.00 0.46 0.01 89 1011.5
20260507072017 41 0 0.0 0.0 0.00 0.46 0.01 89 1011.6
20260507071551 41 0 0.0 0.0 0.00 0.46 0.01 88 1011.6
20260507071022 41 0 0.0 0.0 0.00 0.46 0.01 88 1011.7
20260507070517 41 0 0.0 0.0 0.00 0.46 0.01 88 1011.8
20260507070034 41 0 0.0 0.0 0.00 0.46 0.01 88 1011.8
20260507065519 41 0 0.0 0.0 0.00 0.46 0.01 88 1011.7
20260507065017 41 0 0.0 0.0 0.00 0.46 0.01 88 1011.8
20260507064535 42 0 0.0 0.0 0.00 0.46 0.01 88 1011.9
20260507064020 42 0 0.0 0.0 0.00 0.46 0.01 89 1011.7
20260507063517 42 0 0.0 0.0 0.00 0.46 0.01 90 1011.6
20260507063038 42 0 0.0 0.0 0.00 0.46 0.01 90 1011.6
20260507062517 42 0 0.0 0.0 0.00 0.46 0.01 90 1011.7
20260507062017 42 0 0.0 0.0 0.00 0.46 0.01 91 1011.6
20260507061532 43 0 0.0 0.0 0.01 0.46 0.01 91 1011.5
20260507061015 43 0 0.0 0.0 0.01 0.46 0.01 91 1011.5
20260507060517 43 0 0.0 0.0 0.01 0.46 0.01 92 1011.4
20260507060033 43 0 0.0 0.0 0.01 0.46 0.01 92 1011.5
20260507055517 43 0 0.0 0.0 0.01 0.46 0.01 93 1011.6
20260507055017 43 0 0.0 0.0 0.01 0.46 0.01 93 1011.8
20260507054530 43 0 0.0 0.0 0.01 0.46 0.01 93 1011.7
20260507054017 43 0 0.0 0.0 0.01 0.46 0.01 93 1011.7
20260507053518 43 0 0.0 0.0 0.01 0.46 0.01 93 1011.6
20260507053032 43 0 0.0 0.0 0.01 0.46 0.01 93 1011.9
20260507052536 43 0 0.0 0.0 0.01 0.46 0.01 94 1011.9
20260507052017 44 0 0.0 0.0 0.00 0.45 0.00 94 1011.8
20260507051533 44 0 0.0 0.0 0.00 0.45 0.00 94 1011.8
20260507051017 44 0 0.0 0.0 0.00 0.45 0.00 94 1011.8
20260507050516 44 0 0.0 0.0 0.00 0.45 0.00 95 1011.9
20260507050032 44 0 0.0 0.0 0.00 0.45 0.00 95 1011.8
20260507045517 44 0 0.0 0.0 0.00 0.45 0.00 95 1011.6
20260507045018 44 0 0.0 0.0 0.00 0.45 0.00 95 1011.6
20260507044530 44 0 0.0 0.0 0.00 0.45 0.00 95 1011.6
20260507044014 44 0 0.0 0.0 0.00 0.45 0.00 96 1011.4
20260507043517 44 0 0.0 0.0 0.00 0.45 0.00 96 1011.3
20260507043035 44 0 0.0 0.0 0.00 0.45 0.00 96 1011.2
20260507042518 44 0 0.0 0.0 0.00 0.45 0.00 96 1011.2
20260507042017 44 0 0.0 0.0 0.00 0.45 0.00 96 1011.1
20260507041532 44 0 0.0 0.0 0.00 0.45 0.00 96 1010.9
20260507041017 44 0 0.0 0.0 0.00 0.45 0.00 96 1011.0
20260507040515 44 0 0.0 0.0 0.00 0.45 0.00 96 1010.8
20260507040035 44 0 0.0 0.0 0.00 0.45 0.00 97 1010.9
20260507035515 44 0 0.0 0.0 0.00 0.51 0.45 96 1010.9
20260507035014 44 0 0.0 0.0 0.00 0.51 0.45 96 1010.9
20260507034531 44 0 0.0 0.0 0.00 0.51 0.45 96 1010.9
20260507034016 44 0 0.0 0.0 0.00 0.51 0.45 96 1011.0
20260507033519 44 0 0.0 0.0 0.00 0.51 0.45 96 1011.2
20260507033035 44 0 0.0 0.0 0.00 0.51 0.45 96 1011.3
20260507032513 44 0 0.0 0.0 0.00 0.51 0.45 96 1011.2
20260507032017 44 0 0.0 0.0 0.00 0.51 0.45 96 1011.0
20260507031531 44 0 0.0 0.0 0.00 0.51 0.45 96 1011.2
20260507031014 44 0 0.0 0.0 0.00 0.51 0.45 96 1011.1
20260507030517 44 0 0.0 0.0 0.00 0.51 0.45 96 1011.0
20260507030034 44 0 0.0 0.0 0.00 0.51 0.45 96 1010.9
20260507025517 44 0 0.0 0.0 0.00 0.51 0.45 96 1011.0
20260507025014 44 0 0.0 0.0 0.00 0.51 0.45 96 1011.1
20260507024536 44 0 0.0 0.0 0.00 0.51 0.45 96 1011.2
20260507024017 44 0 0.0 0.0 0.00 0.51 0.45 96 1011.3
20260507023519 44 0 0.0 0.0 0.00 0.51 0.45 96 1011.1
20260507023033 44 0 0.0 0.0 0.00 0.51 0.45 96 1011.0
20260507022517 44 0 0.0 0.0 0.00 0.51 0.45 96 1011.2
20260507022017 44 0 0.0 0.0 0.00 0.51 0.45 96 1011.2
20260507021545 44 0 0.0 0.0 0.00 0.51 0.45 96 1011.1
20260507021020 44 0 0.0 0.0 0.00 0.51 0.45 96 1011.3
20260507020517 44 0 0.0 0.0 0.00 0.51 0.45 96 1011.2
20260507020033 45 0 0.0 0.0 0.00 0.51 0.45 96 1011.4
20260507015521 45 0 0.0 0.0 0.00 0.51 0.45 95 1011.3
20260507015020 45 0 0.0 0.0 0.00 0.51 0.45 96 1011.4
20260507014535 45 0 0.0 0.0 0.00 0.51 0.45 96 1011.4
20260507014017 45 0 0.0 0.0 0.00 0.51 0.45 95 1011.5
20260507013517 45 0 0.0 0.0 0.00 0.51 0.45 95 1011.5
20260507013037 45 0 0.0 0.0 0.00 0.51 0.45 95 1011.5
20260507012521 45 0 0.0 0.0 0.00 0.51 0.45 95 1011.4
20260507012017 45 0 0.0 0.0 0.00 0.51 0.45 95 1011.4
20260507011538 45 0 0.0 0.0 0.00 0.51 0.45 95 1011.7
20260507011016 45 0 0.0 0.0 0.00 0.51 0.45 95 1011.5
20260507010516 45 0 0.0 0.0 0.00 0.51 0.45 95 1011.4
20260507010030 45 0 0.0 0.0 0.00 0.51 0.45 95 1011.4
20260507005517 45 0 0.0 0.0 0.00 0.65 0.45 95 1011.4
20260507005017 45 0 0.0 0.0 0.00 0.65 0.45 95 1011.2
20260507004530 45 0 0.0 0.0 0.00 0.65 0.45 95 1011.2
20260507004017 45 0 0.0 0.0 0.00 0.65 0.45 95 1011.0
20260507003516 45 0 0.0 0.0 0.00 0.65 0.45 95 1011.2
20260507003030 45 0 0.0 0.0 0.00 0.65 0.45 95 1011.0
20260507002517 45 0 0.0 0.0 0.00 0.65 0.45 95 1010.9
20260507002017 45 0 0.0 0.0 0.00 0.65 0.45 94 1011.0
20260507001536 45 0 0.0 0.0 0.00 0.65 0.45 94 1010.9
20260507001016 45 0 0.0 0.0 0.00 0.65 0.45 94 1010.7
20260507000519 45 0 0.0 0.0 0.00 0.65 0.45 94 1010.6
20260507000030 45 0 0.0 0.0 0.00 0.65 0.45 94 1010.6
20260506235518 45 0 0.0 0.0 0.00 0.66 0.45 94 1010.2
20260506235017 45 0 0.0 0.0 0.00 0.66 0.45 94 1010.1
20260506234541 45 0 0.0 0.0 0.00 0.66 0.45 94 1010.0
20260506234017 45 0 0.0 0.0 0.00 0.66 0.45 93 1010.1
20260506233517 45 0 0.0 0.0 0.00 0.66 0.45 93 1010.1
20260506233033 46 0 0.0 0.0 0.00 0.66 0.45 94 1010.0
20260506232516 46 0 0.0 0.0 0.00 0.66 0.45 93 1010.1
20260506232017 46 0 0.0 0.0 0.00 0.66 0.45 93 1010.2
20260506231536 46 0 0.0 0.0 0.00 0.66 0.45 93 1010.2
20260506231017 46 0 0.0 0.0 0.00 0.66 0.45 93 1010.2
20260506230514 46 0 0.0 0.0 0.00 0.66 0.45 93 1010.1
20260506230031 46 0 0.0 0.0 0.00 0.66 0.45 93 1010.3
20260506225516 46 0 0.0 0.0 0.00 0.66 0.45 93 1010.2
20260506225017 46 0 0.0 0.0 0.00 0.66 0.45 93 1009.9
20260506224532 46 0 0.0 0.0 0.00 0.66 0.45 94 1010.1
20260506224018 46 0 0.0 0.0 0.00 0.66 0.45 94 1010.0
20260506223517 46 0 0.0 0.0 0.00 0.66 0.45 94 1010.0
20260506223029 46 0 0.0 0.0 0.00 0.66 0.45 94 1009.9
20260506222517 46 0 0.0 0.0 0.00 0.66 0.45 94 1009.8
20260506222017 46 0 0.0 0.0 0.00 0.66 0.45 94 1009.7
20260506221535 46 0 0.0 0.0 0.00 0.66 0.45 94 1009.8
20260506221017 46 0 0.0 0.0 0.00 0.66 0.45 94 1009.8
20260506220517 46 0 0.0 0.0 0.00 0.66 0.45 94 1009.7
20260506220033 46 0 0.0 0.0 0.00 0.66 0.45 94 1009.6
20260506215516 46 0 0.0 0.0 0.00 0.66 0.45 94 1009.5
20260506215017 46 0 0.0 0.0 0.00 0.66 0.45 94 1009.5
20260506214532 46 0 0.0 0.0 0.00 0.66 0.45 94 1009.4
20260506214016 47 0 0.0 0.0 0.01 0.66 0.45 94 1009.4
20260506213517 46 0 0.0 0.0 0.01 0.66 0.45 94 1009.3
20260506213029 46 0 0.0 0.0 0.01 0.66 0.45 94 1009.2
20260506212520 46 0 0.0 0.0 0.01 0.66 0.45 94 1009.1
20260506212017 46 0 0.0 0.0 0.01 0.66 0.45 94 1009.0
20260506211529 46 0 0.0 0.0 0.01 0.66 0.45 94 1008.9
20260506211017 46 0 0.0 0.0 0.01 0.66 0.45 94 1008.9
20260506210516 46 0 0.0 0.0 0.01 0.66 0.45 94 1008.9
20260506210035 47 0 0.0 0.0 0.01 0.66 0.45 94 1008.8
20260506205518 47 0 0.0 0.0 0.01 0.66 0.45 94 1008.7
20260506205017 47 0 0.0 0.0 0.01 0.66 0.45 94 1008.6
20260506204536 47 0 0.0 0.0 0.01 0.66 0.45 94 1008.7
20260506204018 47 0 0.0 0.0 0.00 0.65 0.44 94 1008.3
20260506203519 47 0 0.0 0.0 0.01 0.65 0.44 94 1008.4
20260506203052 47 0 0.0 0.0 0.01 0.65 0.44 94 1008.3
20260506202518 47 0 0.0 0.0 0.01 0.65 0.44 94 1008.4
20260506202014 47 0 0.0 0.0 0.02 0.65 0.44 95 1008.3
20260506201533 47 0 0.0 0.0 0.02 0.65 0.44 94 1008.3
20260506201018 47 0 0.0 0.0 0.02 0.65 0.44 95 1008.4
20260506200517 48 0 0.0 0.0 0.02 0.65 0.44 95 1008.3
20260506200044 48 0 0.0 0.0 0.02 0.65 0.44 95 1008.2
20260506195517 48 0 0.0 0.0 0.02 0.73 0.44 95 1008.2
20260506195015 48 0 0.0 0.0 0.02 0.73 0.44 95 1008.3
20260506194531 48 0 0.0 0.0 0.02 0.73 0.44 95 1008.1
20260506194017 48 0 0.0 0.0 0.01 0.72 0.43 95 1008.1
20260506193518 48 0 0.0 0.0 0.01 0.72 0.43 95 1008.3
20260506193031 48 0 0.0 0.0 0.01 0.72 0.43 95 1008.3
20260506192516 48 0 0.0 0.0 0.02 0.72 0.43 95 1008.2
20260506192017 48 0 0.0 0.0 0.01 0.71 0.42 96 1008.1
20260506191532 48 0 0.0 0.0 0.01 0.71 0.42 96 1008.0
20260506191017 47 0 0.0 0.0 0.01 0.71 0.42 95 1008.0
20260506190517 47 0 0.0 0.0 0.01 0.71 0.42 95 1007.9
20260506190039 47 0 0.0 0.0 0.02 0.71 0.42 96 1007.9
20260506185514 47 0 0.0 0.0 0.02 0.73 0.42 96 1007.7
20260506185017 47 0 0.0 0.0 0.03 0.73 0.42 96 1007.7
20260506184529 47 0 0.0 0.0 0.03 0.73 0.42 96 1007.7
20260506184017 47 0 0.0 0.0 0.03 0.73 0.42 96 1007.8
20260506183517 47 0 0.0 0.0 0.03 0.73 0.42 96 1007.7
20260506183031 47 0 0.0 0.0 0.04 0.73 0.42 96 1007.6
20260506182516 47 0 0.0 0.0 0.03 0.72 0.41 96 1007.6
20260506182019 47 0 0.0 0.0 0.03 0.72 0.41 96 1007.4
20260506181533 47 0 0.0 0.0 0.03 0.72 0.41 96 1007.4
20260506181017 47 0 0.0 0.0 0.03 0.72 0.41 96 1007.4
20260506180515 47 0 0.0 0.0 0.02 0.71 0.40 96 1007.4
20260506180036 47 0 0.0 0.0 0.02 0.71 0.40 96 1007.3
20260506175514 46 0 0.0 0.0 0.03 0.72 0.40 96 1007.3
20260506175016 46 0 0.0 0.0 0.02 0.71 0.39 96 1007.4
20260506174530 46 0 0.0 0.0 0.02 0.71 0.39 96 1007.4
20260506174014 46 0 0.0 0.0 0.02 0.71 0.39 96 1007.3
20260506173518 46 0 0.0 0.0 0.03 0.71 0.39 96 1007.2
20260506173037 46 0 0.0 0.0 0.02 0.70 0.38 96 1007.3
20260506172517 46 0 0.0 0.0 0.02 0.70 0.38 96 1007.2
20260506172017 46 0 0.0 0.0 0.02 0.70 0.38 96 1007.1
20260506171535 46 0 0.0 0.0 0.02 0.70 0.38 96 1007.3
20260506171017 46 0 0.0 0.0 0.02 0.70 0.38 96 1007.2
20260506170521 46 0 0.0 0.0 0.02 0.70 0.38 96 1007.3
20260506170030 46 0 0.0 0.0 0.03 0.70 0.38 96 1007.3
20260506165517 45 0 0.0 0.0 0.03 0.69 0.37 96 1007.3
20260506165017 45 0 0.0 0.0 0.03 0.69 0.37 96 1007.6
20260506164531 45 0 0.0 0.0 0.03 0.69 0.37 96 1007.5
20260506164017 45 0 0.0 0.0 0.03 0.69 0.37 96 1007.4
20260506163518 45 0 0.0 0.0 0.02 0.68 0.36 96 1007.5
20260506163045 45 0 0.0 0.0 0.02 0.68 0.36 96 1007.5
20260506162517 45 0 0.0 0.0 0.02 0.68 0.36 95 1007.5
20260506162017 45 0 0.0 0.0 0.02 0.68 0.36 100 1007.4
20260506161530 45 0 0.0 0.0 0.02 0.68 0.36 95 1007.7
20260506161018 45 0 0.0 0.0 0.02 0.68 0.36 95 1007.5
20260506160517 45 0 0.0 0.0 0.02 0.68 0.36 95 1007.5
20260506160035 45 0 0.0 0.0 0.01 0.67 0.35 95 1007.4
20260506155517 45 0 0.0 0.0 0.00 0.66 0.34 95 1007.4
20260506155017 45 0 0.0 0.0 0.00 0.66 0.34 95 1007.9
20260506154537 45 0 0.0 0.0 0.00 0.66 0.34 95 1007.9
20260506154017 45 0 0.0 0.0 0.00 0.66 0.34 95 1007.8
20260506153517 45 0 0.0 0.0 0.00 0.66 0.34 95 1007.4
20260506153033 45 0 0.0 0.0 0.00 0.66 0.34 95 1007.4
20260506152517 45 0 0.0 0.0 0.01 0.66 0.34 95 1007.4
20260506152017 45 0 0.0 0.0 0.01 0.66 0.34 95 1007.3